Weather History for North Las Vegas, NV

Change the Weather History Date:

Thursday, January 10, 2013

  Actual Average Record
Temperature  
Mean Temperature 47 °F -  
Max Temperature 55 °F 56 °F 72 °F (1953)
Min Temperature 37 °F 38 °F 11 °F (1952)
Degree Days  
Heating Degree Days 18    
Moisture  
Dew Point 19 °F    
Average Humidity 34    
Maximum Humidity 55    
Minimum Humidity 15    
Precipitation  
Precipitation 0.00 in - - ()
Sea Level Pressure  
Sea Level Pressure 29.80 in    
Wind  
Wind Speed 9 mph (WNW)    
Max Wind Speed 25 mph    
Max Gust Speed 36 mph    
Visibility 10 miles    
Events      
Averages and records for this station are not official NWS values.
T = Trace of Precipitation, MM = Missing Value Source: NWS Daily Summary

Daily Weather History Graph

Daily Weather History Graph

Search for Another Location

Airport:

Trip Planner

Search our weather history database for the weather conditions in past years. The results will help you decide how hot, cold, wet, or windy it might be!

Date:

Astronomy

Jan. 10, 2013 Rise Set
Actual Time 6:52 AM PST 4:45 PM PST
Civil Twilight 6:23 AM PST 5:13 PM PST
Nautical Twilight 5:52 AM PST 5:45 PM PST
Astronomical Twilight 5:21 AM PST 6:16 PM PST
Moon 5:36 AM PST (1/10) 3:57 PM PST (1/10)
Length of Visible Light 10h 49m
Length of Day
9h 52m
Waning Crescent, 1% of the Moon is Illuminated
Jan 10
Waning Crescent
Jan 11
New
Jan 18
First Quarter
Jan 26
Full
Feb 3
Last Quarter

Hourly Weather History & Observations

Time (PST) Temp. Windchill Dew Point Humidity Pressure Visibility Wind Dir Wind Speed Gust Speed Precip Events Conditions
12:53 AM 45.0 °F - 28.0 °F 52% 29.88 in 10.0 mi Calm Calm - N/A   Clear
1:53 AM 46.9 °F - 28.0 °F 48% 29.86 in 10.0 mi Calm Calm - N/A   Clear
2:53 AM 46.9 °F - 27.0 °F 46% 29.83 in 10.0 mi Calm Calm - N/A   Clear
3:53 AM 44.1 °F - 28.9 °F 55% 29.80 in 10.0 mi Calm Calm - N/A   Clear
4:53 AM 46.9 °F - 27.0 °F 46% 29.78 in 10.0 mi Calm Calm - N/A   Clear
5:53 AM 45.0 °F 43.5 °F 26.1 °F 48% 29.78 in 10.0 mi ENE 3.5 mph - N/A   Clear
6:53 AM 50.0 °F - 26.1 °F 39% 29.77 in 10.0 mi South 11.5 mph - N/A   Clear
7:53 AM 52.0 °F - 27.0 °F 38% 29.78 in 10.0 mi WSW 11.5 mph 21.9 mph N/A   Clear
8:53 AM 52.0 °F - 30.0 °F 43% 29.78 in 10.0 mi WSW 17.3 mph 29.9 mph N/A   Clear
9:53 AM 52.0 °F - 30.9 °F 45% 29.79 in 10.0 mi SW 18.4 mph - N/A   Partly Cloudy
10:46 AM 53.6 °F - 28.4 °F 38% 29.72 in 10.0 mi West 13.8 mph 20.7 mph N/A   Partly Cloudy
10:53 AM 54.0 °F - 28.9 °F 38% 29.77 in 10.0 mi West 15.0 mph 24.2 mph N/A   Clear
11:53 AM 55.0 °F - 28.0 °F 35% 29.73 in 10.0 mi West 18.4 mph 26.5 mph N/A   Partly Cloudy
12:53 PM 51.1 °F - 24.1 °F 35% 29.73 in 10.0 mi SSW 13.8 mph 24.2 mph N/A   Overcast
1:53 PM 52.0 °F - 16.0 °F 24% 29.73 in 10.0 mi WSW 20.7 mph 29.9 mph N/A   Clear
2:53 PM 48.9 °F - 15.1 °F 26% 29.75 in 10.0 mi NNW 25.3 mph 35.7 mph N/A   Overcast
3:53 PM 45.0 °F 36.2 °F 16.0 °F 31% 29.79 in 10.0 mi NNW 24.2 mph 29.9 mph N/A   Mostly Cloudy
4:53 PM 46.0 °F 39.3 °F 3.0 °F 17% 29.79 in 10.0 mi NW 16.1 mph - N/A   Overcast
5:53 PM 45.0 °F 37.6 °F -0.0 °F 15% 29.81 in 10.0 mi NNW 17.3 mph 23.0 mph N/A   Overcast
6:53 PM 44.1 °F 37.4 °F 1.9 °F 17% 29.82 in 10.0 mi NW 13.8 mph - N/A   Clear
7:53 PM 42.8 °F 34.5 °F 1.4 °F 18% 29.78 in 10.0 mi NW 18.4 mph 25.3 mph N/A   Clear
8:53 PM 42.1 °F 34.2 °F 5.0 °F 22% 29.86 in 10.0 mi WNW 16.1 mph - N/A   Clear
9:53 PM 39.9 °F 31.4 °F 6.1 °F 25% 29.90 in 10.0 mi WNW 16.1 mph 21.9 mph N/A   Clear
10:53 PM 39.0 °F 32.3 °F 8.1 °F 28% 29.92 in 10.0 mi North 10.4 mph - N/A   Clear
11:53 PM 37.0 °F 28.9 °F 9.0 °F 31% 29.94 in 10.0 mi North 12.7 mph - N/A   Clear